Regional Weather Roundup
Issued by NWS

Home | Current Version | Previous Version | Graphics & Text | Print | Product List | Glossary On
Versions: 1 2 3 4 5 6 7 8 9 10 11 12 13 14 15 16 17 18 19 20 21 22 23 24 25 26 27 28 29 30 31 32 33 34 35 36 37 38 39 40 41 42 43 44 45 46 47 48 49 50
000
ASUS43 KFSD 200602
RWRSD

WEATHER ROUNDUP FOR SOUTH DAKOTA
NATIONAL WEATHER SERVICE SIOUX FALLS SD
100 AM CDT SUN AUG 20 2017

NOTE: "FAIR" INDICATES FEW OR NO CLOUDS BELOW 12,000 FEET WITH NO
SIGNIFICANT WEATHER AND/OR OBSTRUCTIONS TO VISIBILITY.


SDZ001>005-009-010-012>017-200700-
NORTHWEST AND NORTH CENTRAL SOUTH DAKOTA

CITY           SKY/WX    TMP DP  RH WIND       PRES   REMARKS
BUFFALO          N/A     68  46  45 N6        29.97R
FAITH            N/A     70  51  51 NE24G30   29.90F
MOBRIDGE       PTCLDY    72  56  57 N13       29.85R
$$

SDZ012>016-024>037-041>051-057-063-072>074-200700-
SOUTHWEST AND SOUTH CENTRAL SOUTH DAKOTA

CITY           SKY/WX    TMP DP  RH WIND       PRES   REMARKS
RAPID CTY ARPT CLEAR     66  43  43 NW17      29.98R
PIERRE         CLOUDY    70  66  87 N8        29.83R
CUSTER         CLEAR     62  35  36 E13       30.09R
ELLSWORTH AFB  CLOUDY    70  42  35 NW9       29.98R
PHILIP         CLOUDY    76  48  37 NE13      29.85R
PINE RIDGE     CLEAR     63  49  60 E7        29.92S
SPEARFISH      FAIR      66  41  39 SE14      30.00F
WINNER         FAIR      74  63  68 SW15      29.80S
$$

SDZ004>011-016>023-039-040-200700-
NORTHEAST SOUTH DAKOTA

CITY           SKY/WX    TMP DP  RH WIND       PRES   REMARKS
ABERDEEN       CLEAR     62  62 100 S5        29.83R
WATERTOWN      CLEAR     66  64  93 S8        29.84S
BROOKINGS      CLOUDY    68  64  87 SE8       29.84F
SISSETON         N/A     65  64  97 S8        29.80S
$$

SDZ017-020-022-023-036>040-048>070-200700-
SOUTHEAST SOUTH DAKOTA

CITY           SKY/WX    TMP DP  RH WIND       PRES   REMARKS
SIOUX FALLS    CLOUDY    71  65  81 S5        29.84F
HURON          CLEAR     70  63  78 SE6       29.81R
CHAMBERLAIN    CLEAR     67  67 100 E7        29.80R
MITCHELL       CLOUDY    70  65  84 SE8       29.81F
YANKTON        CLOUDY    71  65  81 E7        29.83R
$$

ABBREVIATIONS USED IN REMARKS
   TC - TEMPERATURE IN CELSIUS
  WCI - WIND CHILL INDEX
   HX - HEAT INDEX
  VSB - VISIBILITY





USA.gov is the U.S. government's official web portal to all federal, state and local government web resources and services.